Flag for Poland Weather past 2 weeks in Gliwice, Poland

Now
61 °F

Passing clouds.


Feels Like: 61 °F
Forecast: 52 / 69 °F
Wind: 8 mph from West

Location: Katowice Airport

Current Time: Aug 20, 2014 at 11:36:23 AM

Latest Report: Aug 20, 2014 at 11:00 AM


Visibility: N/A

Pressure: 30.01 "Hg

Humidity: 77%

Dew point: 54 °F

Location of GliwiceLocation

Historic Weather in Gliwice — Graph

°F

Gliwice temperature yesterday

Maximum temperature yesterday: 63 °F (at 12:00 PM)
Minimum temperature yesterday: 54 °F (at 5:30 AM)
Average temperature yesterday: 59 °F

Past Weeks' High & Low Weather Summary

 TemperatureHumidityPressure
High84 °F (Aug 9, 3:00 PM)100% (Aug 6, 3:30 AM)30.04 "Hg (Aug 6, 3:30 AM)
Low52 °F (Aug 17, 3:00 AM)37% (Aug 9, 3:00 PM)29.65 "Hg (Aug 13, 9:00 PM)
Average65 °F78%29.93 "Hg
* Reported Aug 5 10:00 AM — Aug 20 10:30 AM, Gliwice, Weather by CustomWeather, © 2014

Note: Actual official high and low records may vary slightly from our data, if they occured in-between our weather recording intervals... More about our weather records

Advertising

Gliwice weather history for previous 24 hours

 ConditionsComfort  
Time TempWeatherWind HumidityBarometerVisibility
10:30 AM
Aug 20
61 °FPassing clouds.6 mph72%30.01 "HgN/A
10:00 AM59 °FPassing clouds.8 mph77%30.01 "HgN/A
9:30 AM59 °FPassing clouds.6 mph77%30.01 "HgN/A
9:00 AM57 °FPassing clouds.6 mph82%29.98 "HgN/A
8:30 AM57 °FSunny.6 mph82%29.98 "Hg10 mi
8:00 AM57 °FPassing clouds.6 mph88%29.98 "HgN/A
7:30 AM55 °FClear.5 mph94%29.98 "Hg6 mi
7:00 AM55 °FClear.6 mph94%29.95 "Hg5 mi
6:30 AM55 °FFog.5 mph94%29.95 "Hg4 mi
6:00 AM54 °FFog.5 mph94%29.95 "Hg4 mi
5:30 AM54 °FFog.5 mph100%29.95 "Hg4 mi
5:00 AM55 °FClear.3 mph94%29.92 "Hg4 mi
4:30 AM55 °FClear.2 mph94%29.92 "Hg4 mi
4:00 AM55 °FClear.5 mph94%29.92 "Hg4 mi
3:30 AM57 °FClear.5 mph94%29.92 "Hg4 mi
3:00 AM57 °FClear.5 mph94%29.92 "Hg4 mi
2:30 AM57 °FFog.3 mph94%29.92 "Hg2 mi
2:00 AM55 °FFog.3 mph100%29.92 "Hg2 mi
1:30 AM55 °FFog.3 mph100%29.92 "Hg2 mi
1:00 AM55 °FFog.3 mph100%29.92 "Hg2 mi
12:30 AM55 °FCool.2 mph100%29.92 "Hg2 mi
12:00 AM57 °FCool.3 mph94%29.92 "Hg2 mi
11:30 PM
Aug 19
57 °FFog.3 mph94%29.92 "Hg3 mi
11:00 PM57 °FFog.3 mph94%29.92 "Hg3 mi
10:30 PM57 °FClear.2 mph94%29.92 "Hg4 mi
10:00 PM57 °FClear.3 mph94%29.92 "Hg4 mi
9:30 PM57 °FClear.5 mph94%29.92 "Hg4 mi
9:00 PM57 °FClear.5 mph94%29.95 "Hg10 mi
8:30 PM59 °FSunny.6 mph88%29.92 "Hg10 mi
8:00 PM59 °FPassing clouds.5 mph94%29.92 "HgN/A
7:30 PM59 °FScattered clouds.3 mph94%29.92 "HgN/A
7:00 PM61 °FScattered clouds.2 mph88%29.92 "HgN/A
6:30 PM61 °FScattered clouds.3 mph83%29.92 "HgN/A
6:00 PM61 °FScattered clouds.6 mph88%29.92 "HgN/A
5:30 PM59 °FScattered clouds.7 mph94%29.92 "HgN/A
5:00 PM59 °FScattered clouds.3 mph94%29.92 "Hg4 mi
4:30 PM57 °FLight rain. Partly sunny.5 mph94%29.95 "Hg4 mi
4:00 PM57 °FLight rain. Partly sunny.3 mph94%29.95 "HgN/A
3:30 PM57 °FSprinkles. Partly sunny.5 mph88%29.95 "Hg5 mi
3:00 PM57 °FSprinkles. Scattered clouds.3 mph88%29.95 "HgN/A
2:30 PM57 °FSprinkles. Scattered clouds.6 mph88%29.95 "HgN/A
2:00 PM59 °FSprinkles. Partly sunny.7 mph82%29.98 "HgN/A
1:30 PM61 °FSprinkles. Scattered clouds.6 mph77%29.95 "HgN/A
1:00 PM63 °FScattered clouds.5 mph68%29.95 "HgN/A
12:30 PM63 °FSunny.2 mph68%29.95 "Hg10 mi
12:00 PM63 °FSunny.2 mph68%29.95 "Hg10 mi
11:30 AM61 °FPassing clouds.3 mph72%29.95 "HgN/A
11:00 AM61 °FSunny.6 mph72%29.95 "Hg10 mi
Weather by CustomWeather, © 2014

See weather overviewHow to use our weather pages